カタログに戻る

STARLINK-33630

運用中通信VLEO
NORAD 63477·PAYLOAD·🇺🇸 United States

打ち上げ Apr 6, 2025 から Cape Canaveral Space Force Station

Loading…

次のパス (今後24時間)

TLE

最新Source: CelesTrak SupGP

元期: Sep 15, 2026, 03:14 UTC

1 63477C 25070T   26258.13520833 -.00021813  00000+0 -79017-3 0  2580
2 63477  43.0025 266.3328 0001446 267.0482 352.4486 15.27584686    12

AllMySatでSTARLINK-33630をリアルタイム追跡

Download on the App Store